Tracking 19634 objects as of 21-May-2019
HD Live streaming from Space Station
objects crossing your sky now

SL-12 R/B(2)

Track SL-12 R/B(2) now!


NORAD ID: 22966
Int'l Code: 1994-002D
Perigee: 35,839.3 km
Apogee: 36,199.0 km
Inclination: 15.2 °
Period: 1,447.6 minutes
Semi major axis: 42390 km
RCS: 2.5179 m2 (large)
Launch date: January 20, 1994
Source: Commonwealth of Independent States (former USSR) (CIS)
Launch site: TYURATAM MISSILE AND SPACE COMPLEX (TTMTR)

Note: This is a ROCKET BODY
aabbcc
Your satellite tracking list
Your tracking list is empty




NASA's NSSDC Master Catalog

Two Line Element Set (TLE):
1 22966U 94002D   19140.88063899 -.00000264  00000-0  00000+0 0  9998
2 22966  15.2372   5.0795 0042421  74.1377  96.8436  0.99473051 91357
Source of the keplerian elements: AFSPC